www.pogodaiklimat.ru

Погода и климат >> Архив погоды >> Австрия >> Фельбах


ПОГОДА в Фельбахе

  • Прогноз погоды в Фельбахе
  • Монитор погоды в Фельбахе

АРХИВ ПОГОДЫ в Фельбахе

Время (UTC), дата Ветер
(напр.,м/с)
 
Видим.   Явления Облачность Т
(С)
Тd
(С)
f
(%)
Тe
(С)
Тes
(С)
Комфортность P
(гПа)
Po
(гПа)
Тmin
(С)
Tmax
(С)
R
(мм)
R24
(мм)
S
(см)
07 17.06 штиль 0 н/о н/о +21.8 +14.4 63 +25 +25 комфорт 1018.3 981.6
08 17.06 СЗ 1 н/о н/о +21.7 +14.6 64 +25 +25 комфорт 1018.2 981.5
09 17.06 СЗ 1 н/о н/о +23.4 +15.1 60 +28 +28 душно 1018.1 981.6
10 17.06 З 1 н/о н/о +23.5 +15.2 60 +26 +26 жарко 1017.9 981.4
11 17.06 С 2 н/о н/о +24.7 +14.0 51 +27 +27 жарко 1017.6 981.3
12 17.06 В 2 н/о н/о +25.7 +14.3 49 +28 +28 жарко 1017.1 980.9
13 17.06 В 2 н/о н/о +24.7 +14.5 53 +27 +27 жарко 1017.2 980.9
14 17.06 СВ 2 н/о н/о +25.5 +14.7 51 +28 +28 жарко 1016.5 980.3
15 17.06 СВ 2 н/о н/о +25.5 +14.9 52 +28 +28 жарко 1016.2 980.0
16 17.06 С 2 н/о н/о +25.2 +15.1 54 +28 +28 жарко 1016.1 979.9
17 17.06 СВ 2 н/о н/о +24.4 +15.4 57 +27 +27 жарко 1016.3 980.0
18 17.06 СВ 1 н/о н/о +23.4 +14.5 57 +27 +27 душно 1016.3 979.9 +19.3 +26.0
19 17.06 СВ 1 н/о н/о +22.7 +14.2 59 +26 +26 жарко 1016.7 980.2
20 17.06 штиль 0 н/о н/о +21.3 +14.8 66 +24 +24 комфорт 1017.4 980.7
21 17.06 СЗ 1 н/о н/о +20.7 +15.0 70 +25 +25 комфорт 1017.5 980.7
22 17.06 З 2 н/о н/о +19.7 +15.9 79 +22 +22 комфорт 1017.3 980.4
23 17.06 З 2 н/о н/о +19.3 +15.6 79 +22 +22 комфорт 1017.4 980.4
00 18.06 штиль 0 н/о н/о +18.5 +15.5 83 +19 +19 1017.5 980.4
01 18.06 штиль 0 н/о н/о +17.9 +15.2 84 +18 +18 1017.0 979.9
02 18.06 штиль 0 н/о н/о +17.3 +15.2 87 +17 +17 1016.9 979.7
03 18.06 штиль 0 н/о н/о +16.9 +15.3 90 +17 +17 1016.9 979.7
04 18.06 штиль 0 н/о н/о +17.2 +15.7 91 +17 +17 1016.9 979.7
05 18.06 СЗ 1 н/о н/о +17.8 +15.9 89 +19 +19 1016.9 979.8
06 18.06 штиль 0 н/о н/о +19.8 +16.3 80 +22 +22 комфорт 1017.2 980.3 +16.6 +23.6
07 18.06 В 2 н/о н/о +22.4 +15.9 67 +27 +27 душно 1017.0 980.4
08 18.06 В 2 н/о н/о +22.8 +16.1 66 +27 +27 душно 1016.9 980.4
09 18.06 В 2 н/о н/о +24.2 +15.5 58 +27 +27 жарко 1016.4 980.1
10 18.06 ЮВ 2 н/о н/о +25.3 +16.5 58 +29 +29 душно 1016.0 979.8
11 18.06 В 2 н/о н/о +24.7 +15.2 55 +28 +28 душно 1015.8 979.5 0.0
12 18.06 Ю 2 н/о н/о +25.5 +16.2 56 +29 +29 душно 1015.0 978.9 0.0
13 18.06 ЮВ 2 н/о н/о +25.0 +16.0 57 +28 +28 жарко 1015.0 978.8
14 18.06 В 2 н/о н/о +25.1 +16.9 60 +29 +29 душно 1014.2 978.1
15 18.06 ЮВ 2 н/о н/о +25.4 +16.7 59 +29 +29 душно 1013.8 977.7
16 18.06 Ю 2 н/о н/о +25.8 +17.3 59 +30 +30 душно 1013.4 977.4
17 18.06 ЮВ 2 н/о н/о +24.6 +16.8 62 +28 +28 душно 1013.8 977.6 0.0
18 18.06 Ю 1 н/о н/о +23.4 +17.7 70 +29 +29 душно 1013.9 977.6 +19.0 +26.8 0.0
19 18.06 ЮЗ 1 н/о н/о +21.8 +17.8 78 +26 +26 душно 1014.2 977.7
20 18.06 Ю 1 н/о н/о +20.3 +17.7 85 +25 +25 комфорт 1014.6 977.9
21 18.06 Ю 1 н/о н/о +19.4 +17.5 89 +23 +23 комфорт 1014.5 977.7
22 18.06 штиль 0 н/о н/о +19.0 +17.3 90 +20 +20 1014.5 977.6
23 18.06 З 1 н/о н/о +18.2 +17.3 94 +20 +20 1014.6 977.6
00 19.06 З 1 н/о н/о +18.0 +16.9 93 +19 +19 1014.3 977.3
01 19.06 ЮВ 1 н/о н/о +17.2 +16.4 95 +18 +18 1014.1 977.0
02 19.06 штиль 0 н/о н/о +16.8 +16.1 96 +17 +17 1013.7 976.6
03 19.06 штиль 0 н/о н/о +16.3 +15.8 97 +16 +16 1013.7 976.5
04 19.06 штиль 0 н/о н/о +16.2 +15.6 96 +16 +16 1013.7 976.5
05 19.06 С 1 н/о н/о +18.8 +16.4 86 +21 +21 комфорт 1013.4 976.5
06 19.06 С 1 н/о н/о +21.3 +17.3 78 +25 +25 комфорт 1013.0 976.5 +15.9 +23.5
07 19.06 В 1 н/о н/о +23.4 +17.5 69 +29 +29 душно 1012.7 976.4
08 19.06 ЮВ 1 н/о н/о +24.1 +18.1 69 +28 +28 душно 1012.5 976.3
09 19.06 ЮВ 1 н/о н/о +26.1 +16.5 55 +30 +30 душно 1011.9 976.0
10 19.06 ЮВ 1 н/о н/о +26.9 +17.4 56 +31 +31 душно 1011.5 975.7
11 19.06 Ю 2 н/о н/о +26.8 +16.3 53 +30 +30 душно 1010.7 974.9
12 19.06 ЮВ 1 н/о н/о +28.3 +16.9 50 +32 +32 душно 1010.2 974.6
13 19.06 Ю 2 н/о н/о +28.6 +15.2 44 +31 +31 жарко 1010.0 974.4
14 19.06 ЮВ 2 н/о н/о +28.7 +16.2 47 +32 +32 душно 1008.9 973.4
15 19.06 ЮЗ 1 н/о н/о +27.0 +16.1 51 +30 +30 душно 1009.2 973.5
16 19.06 З 2 н/о н/о +24.5 +13.5 50 +27 +27 жарко 1009.6 973.5
17 19.06 З 3 н/о н/о +23.0 +12.3 51 +26 +26 жарко 1010.7 974.4
18 19.06 З 2 н/о осадки н/о +19.0 +15.5 80 +21 +21 комфорт 1011.1 974.3 +19.0 +29.4 0.5
19 19.06 штиль 0 н/о н/о +18.8 +16.3 85 +20 +20 1011.0 974.2 0.0
20 19.06 ЮЗ 4 н/о н/о +18.3 +15.7 85 +19 +19 1011.2 974.3 0.0
21 19.06 З 1 н/о н/о +17.6 +15.2 86 +19 +19 1011.4 974.4 0.0
22 19.06 штиль 0 н/о н/о +17.2 +15.4 89 +17 +17 1011.6 974.6
23 19.06 З 1 н/о н/о +16.9 +15.2 90 +18 +18 1011.7 974.6
00 20.06 ЮЗ 1 н/о н/о +16.0 +15.0 94 +17 +17 1011.6 974.4 0.0
01 20.06 З 2 н/о н/о +15.9 +15.0 94 +16 +16 1011.5 974.3
02 20.06 штиль 0 н/о н/о +14.8 +14.1 96 +14 +14 1011.5 974.2
03 20.06 штиль 0 н/о н/о +14.4 +13.7 96 +14 +14 1011.4 974.0
04 20.06 З 1 н/о н/о +14.5 +13.8 96 +15 +15 1011.6 974.2
05 20.06 штиль 0 н/о н/о +17.8 +14.8 83 +18 +18 1011.3 974.4
06 20.06 З 1 н/о н/о +19.8 +14.3 71 +23 +23 комфорт 1011.3 974.6 +14.0 +20.5 0.0
07 20.06 З 1 н/о н/о +22.8 +16.5 68 +27 +27 душно 1011.2 974.9
08 20.06 В 1 н/о н/о +24.4 +15.3 57 +27 +27 жарко 1011.3 975.2
09 20.06 штиль 0 н/о н/о +26.7 +16.1 52 +30 +30 душно 1011.0 975.2
10 20.06 В 2 н/о н/о +27.2 +14.9 47 +30 +30 душно 1011.2 975.4
11 20.06 В 2 н/о н/о +28.2 +15.3 45 +31 +31 душно 1010.9 975.2
12 20.06 В 2 н/о н/о +29.0 +15.1 43 +32 +32 душно 1010.2 974.6
13 20.06 В 2 н/о н/о +29.2 +14.6 41 +31 +31 жарко 1009.5 974.0
14 20.06 СВ 3 н/о н/о +28.1 +14.9 45 +31 +31 душно 1009.6 974.0
15 20.06 В 2 н/о в посл. час осадки н/о +27.8 +14.4 44 +30 +30 жарко 1009.4 973.7 0.0
16 20.06 В 2 н/о н/о +27.4 +15.1 47 +30 +30 жарко 1009.7 974.0 0.0
17 20.06 С 2 н/о н/о +25.6 +13.9 48 +28 +28 жарко 1010.3 974.3
18 20.06 С 1 н/о {осадки} н/о +24.5 +14.4 53 +27 +27 жарко 1010.6 974.5 +19.6 +30.1 0.0
19 20.06 СВ 1 н/о н/о +23.6 +15.2 59 +26 +26 жарко 1010.8 974.6
20 20.06 С 1 н/о н/о +21.9 +16.1 70 +26 +26 душно 1011.7 975.3 0.0
21 20.06 СЗ 1 н/о н/о +20.7 +16.6 77 +25 +25 комфорт 1012.3 975.7 0.0
22 20.06 ЮЗ 1 н/о н/о +20.1 +16.5 80 +24 +24 комфорт 1013.0 976.3
23 20.06 СЗ 1 н/о н/о +20.6 +16.9 79 +25 +25 комфорт 1013.5 976.9
00 21.06 С 2 н/о н/о +20.0 +14.6 71 +23 +23 комфорт 1014.4 977.6 0.0
01 21.06 СЗ 1 н/о в посл. час осадки н/о +17.4 +16.2 93 +18 +18 1014.5 977.4 3
02 21.06 З 1 н/о н/о +16.8 +15.8 94 +18 +18 1014.7 977.5
03 21.06 штиль 0 н/о {осадки} н/о +16.2 +15.3 94 +16 +16 1015.2 977.9 3
04 21.06 штиль 0 н/о н/о +16.3 +15.6 96 +16 +16 1015.7 978.4
05 21.06 Ю 1 н/о н/о +17.6 +16.5 93 +19 +19 1015.7 978.6
06 21.06 СЗ 1 н/о {осадки} н/о +20.8 +16.7 77 +25 +25 комфорт 1015.8 979.1 +16.1 +24.7 3
07 21.06 В 1 н/о н/о +21.9 +15.5 67 +26 +26 душно 1016.2 979.6
08 21.06 В 1 н/о н/о +23.3 +14.5 58 +27 +27 душно 1016.1 979.7
09 21.06 В 2 н/о н/о +25.0 +15.5 56 +28 +28 жарко 1015.9 979.7
10 21.06 Ю 1 н/о н/о +25.6 +13.8 48 +28 +28 жарко 1015.9 979.7
11 21.06 СВ 1 н/о н/о +26.0 +14.2 48 +28 +28 жарко 1015.7 979.6
12 21.06 Ю 2 н/о н/о +26.7 +13.8 45 +29 +29 жарко 1014.9 978.9
13 21.06 Ю 1 н/о н/о +27.3 +15.0 47 +30 +30 душно 1014.4 978.5
14 21.06 ЮЗ 2 н/о н/о +27.5 +14.6 45 +30 +30 жарко 1013.8 977.9
15 21.06 ЮЗ 3 н/о н/о +26.2 +14.7 49 +29 +29 жарко 1013.9 977.9
16 21.06 Ю 3 н/о н/о +26.4 +15.9 52 +30 +30 душно 1013.9 977.9
17 21.06 Ю 2 н/о н/о +25.1 +15.8 56 +28 +28 жарко 1014.2 978.1
18 21.06 З 2 н/о н/о +23.9 +16.2 62 +27 +27 жарко 1014.7 978.4 +20.4 +28.0
19 21.06 З 1 н/о н/о +23.4 +16.5 65 +28 +28 душно 1015.2 978.8
20 21.06 ЮЗ 1 н/о н/о +22.3 +17.0 72 +27 +27 душно 1016.1 979.6 0.0
21 21.06 С 1 н/о н/о +22.0 +15.8 68 +26 +26 душно 1016.7 980.1 0.0
22 21.06 С 1 н/о н/о +21.1 +14.7 67 +24 +24 комфорт 1016.9 980.2
23 21.06 С 1 н/о н/о +20.7 +14.4 67 +25 +25 комфорт 1016.8 980.0
00 22.06 штиль 0 н/о н/о +20.2 +14.2 68 +22 +22 комфорт 1017.0 980.1 0.0
01 22.06 З 1 н/о н/о +18.9 +14.8 77 +21 +21 комфорт 1017.1 980.1
02 22.06 штиль 0 н/о н/о +17.6 +14.6 83 +18 +18 1017.1 979.9
03 22.06 З 1 н/о н/о +18.4 +15.4 83 +20 +20 1017.3 980.2
04 22.06 ЮЗ 1 н/о н/о +17.6 +15.5 87 +19 +19 1017.3 980.1
05 22.06 СЗ 1 н/о н/о +18.4 +15.5 83 +20 +20 1017.5 980.4
06 22.06 В 1 н/о н/о +19.8 +15.8 78 +23 +23 комфорт 1017.6 980.7 +17.2 +24.4 0.0
07 22.06 СВ 1 н/о в посл. час осадки н/о +19.7 +16.1 80 +23 +23 комфорт 1017.7 980.8 0.1
08 22.06 ЮВ 1 н/о осадки н/о +18.1 +17.4 96 +19 +19 1018.0 980.9 4
09 22.06 В 1 н/о {ливн. осадки} н/о +18.8 +17.7 93 +21 +21 комфорт 1017.9 980.9 12
10 22.06 С 1 н/о н/о +20.3 +17.6 84 +25 +25 комфорт 1017.7 980.9
11 22.06 С 1 н/о н/о +20.6 +17.6 83 +25 +25 комфорт 1017.2 980.4
12 22.06 С 1 н/о {ливн. осадки} н/о +20.4 +18.4 88 +25 +25 комфорт 1017.0 980.2 12
13 22.06 СЗ 1 н/о осадки н/о +19.7 +19.0 96 +24 +24 комфорт 1016.3 979.5 2
14 22.06 З 4 н/о осадки н/о +18.3 +17.7 96 +19 +19 1016.6 979.6 4
15 22.06 С 3 н/о осадки н/о +18.0 +17.3 96 +18 +18 1015.1 978.1 10
16 22.06 СЗ 1 н/о в посл. час осадки н/о +19.1 +17.5 90 +22 +22 комфорт 1014.1 977.3 0.7
17 22.06 штиль 0 н/о н/о +20.3 +17.3 83 +23 +23 комфорт 1014.6 977.9
18 22.06 З 1 н/о {осадки} н/о +19.7 +18.3 92 +23 +23 комфорт 1014.4 977.6 +17.6 +20.7 23
19 22.06 З 1 н/о н/о +18.5 +17.5 94 +20 +20 1013.8 976.9
20 22.06 Ю 1 н/о н/о +17.8 +17.3 97 +19 +19 1014.0 977.0
21 22.06 З 1 н/о н/о +17.5 +17.2 98 +19 +19 1014.3 977.3
22 22.06 С 1 н/о н/о +18.1 +17.7 98 +19 +19 1014.7 977.7
23 22.06 В 1 н/о н/о +18.1 +17.5 96 +19 +19 1014.6 977.6
00 23.06 В 2 н/о осадки н/о +17.7 +17.4 98 +18 +18 1014.6 977.6 0.1
01 23.06 В 2 н/о осадки н/о +17.5 +17.3 99 +18 +18 1014.6 977.5 2
02 23.06 В 1 н/о осадки н/о +17.5 +17.2 98 +19 +19 1014.1 977.1 3
03 23.06 С 1 н/о осадки н/о +17.4 +17.0 97 +18 +18 1014.2 977.1 7
04 23.06 СЗ 1 н/о осадки н/о +16.9 +16.5 97 +18 +18 1014.1 977.0 1
05 23.06 СВ 1 н/о в посл. час осадки н/о +17.0 +16.4 96 +18 +18 1014.2 977.1 0.1
06 23.06 СВ 1 н/о ливневой дождь н/о +17.4 +16.7 96 +18 +18 1014.7 977.6 +16.9 +19.7 8
07 23.06 СВ 1 н/о осадки н/о +17.5 +16.8 96 +19 +19 1015.0 977.9 0.0
08 23.06 СВ 1 н/о осадки н/о +17.5 +16.8 96 +19 +19 1015.2 978.1 0.6
09 23.06 С 2 н/о в посл. час осадки {ливн. осадки} н/о +17.9 +17.1 95 +18 +18 1015.4 978.4 0.7
10 23.06 С 3 н/о н/о +18.2 +17.0 93 +19 +19 1015.7 978.7 0.0
11 23.06 С 2 н/о ливневой дождь н/о +18.4 +17.8 96 +20 +20 1016.0 979.0 2
12 23.06 С 2 н/о {ливн. осадки} н/о +18.4 +17.8 96 +20 +20 1016.1 979.1 9
13 23.06 СЗ 2 н/о в посл. час осадки н/о +19.7 +18.3 92 +23 +23 комфорт 1015.8 979.0 0.1
14 23.06 С 3 н/о н/о +21.3 +17.8 80 +25 +25 комфорт 1015.3 978.7
15 23.06 С 1 н/о осадки н/о +19.9 +18.2 90 +24 +24 комфорт 1015.5 978.7 2
16 23.06 СВ 2 н/о в посл. час осадки н/о +20.5 +18.7 89 +25 +25 комфорт 1015.3 978.6 3
17 23.06 С 2 н/о н/о +20.7 +17.9 84 +25 +25 комфорт 1015.4 978.7
18 23.06 С 2 н/о {ливн. осадки} н/о +20.8 +17.5 81 +25 +25 комфорт 1015.7 979.0 +17.3 +22.6 13
19 23.06 С 3 н/о н/о +20.2 +16.7 80 +23 +23 комфорт 1016.3 979.5
20 23.06 ЮЗ 1 н/о н/о +19.2 +17.3 89 +22 +22 комфорт 1017.1 980.2
21 23.06 СЗ 1 н/о н/о +18.7 +17.8 95 +21 +21 комфорт 1017.2 980.2
22 23.06 СЗ 1 н/о осадки н/о +18.4 +17.6 95 +20 +20 1017.8 980.7 0.8
23 23.06 СЗ 1 н/о в посл. час осадки н/о +18.3 +17.4 94 +20 +20 1018.2 981.1 0.0
00 24.06 С 3 н/о {ливн. осадки} н/о +18.5 +17.1 92 +19 +19 1018.4 981.3 0.8
01 24.06 С 1 н/о н/о +18.1 +16.9 93 +19 +19 1018.7 981.6
02 24.06 штиль 0 н/о н/о +17.9 +17.1 95 +18 +18 1018.6 981.4
03 24.06 З 1 н/о н/о +17.2 +16.7 97 +18 +18 1018.7 981.4
04 24.06 З 1 н/о н/о +16.9 +16.6 98 +18 +18 1019.3 982.0
05 24.06 штиль 0 н/о н/о +19.9 +17.4 86 +22 +22 комфорт 1019.1 982.2
06 24.06 З 1 н/о н/о +21.3 +17.9 81 +25 +25 комфорт 1018.9 982.2 +16.7 +21.6 0.8
07 24.06 штиль 0 н/о н/о +23.5 +18.5 74 +28 +28 душно 1018.9 982.4
08 24.06 СВ 2 н/о н/о +24.0 +15.9 61 +27 +27 жарко 1018.8 982.4

 

Местоположение метеостанции Фельбах (Австрия): широта 46.95 долгота 15.88 высота над уровнем моря 320 м.

В архиве по умолчанию представлена погода в Фельбахе за последнюю неделю. Архивные данные за месяц целиком и за предыдущие месяцы, начиная с января 2011 года, Вы можете получить, выбрав интересующий диапазон дат из раскрывающегося списка и нажав кнопку "Ввод!".


*Определитесь, кто Вы:
робот инопланетянин человек

Внимание! Время в таблицах - всемирное. Для получения местного времени необходимо прибавить поправку, которая равна 1 ч.

Смотрите также архив погоды в соседних городах и на ближайших метеорологических станциях:

Погода в Бад-Глайхенбере (Австрия) (9 км)
Погода в Ласницхёэ (Австрия) (26 км)
Погода в Бад-Радкерсбурге (Австрия) (31 км)
Погода в Лейбнице (Австрия) (32 км)
Погода в Сентготтхарде (Венгрия) (34 км)
Погода в Граце (Австрия) (35 км)
Погода в Хартберге (Австрия) (37 км)
Погода в Граце университет (Австрия) (38 км)
Погода в Санкт Радегунд бай Грац (Австрия) (39 км)
Погода в Мурска-Соботе (Словения) (40 км)

Пояснения к столбцам:

Ветер - указаны скорость ветра в м/с - средняя за 10 мин, порывы в срок и между сроками (в фигурных скобках) и направление, откуда дует ветер: С - северный, СВ - северо-восточный, В - восточный, ЮВ - юго-восточный, Ю - южный, ЮЗ - юго-западный, З - западный, СЗ - северо-западный.
Видимость - горизонтальная дальность видимости в метрах или километрах. При видимости от 1 до 10 км при отсутствии осадков обычно наблюдается дымка, при ухудшении видимости до 1 км и менее - туман. В сухую погоду видимость может ухудшаться дымом, пылью или мглою.
Явления - указаны атмосферные явления, наблюдавшиеся в срок или в последний час перед сроком; фигурными скобками обозначены явления, наблюдавшиеся между сроками (за 1-3 часа до срока); квадратными скобками обозначены град или гололедные отложения с указанием их диаметра в мм.
Облачность - указаны через наклонную черту общая и нижняя облачность в баллах и высота нижней границы облаков в метрах; квадратными скобками обозначены формы облаков: Ci - перистые, Cs - перисто-слоистые, Cc - перисто-кучевые, Ac - высококучевые, As - высокослоистые, Sc - слоисто-кучевые, Ns - слоисто-дождевые, Cu - кучевые, Cb - кучево-дождевые. Подробнее классификацию облаков см. в Атласе облаков (PDF).
T - Температура воздуха - температура, измеренная на высоте 2 м над землей.
Td - Температура точки росы - температура, при понижении до которой содержащийся в воздухе водяной пар достигнет насыщения.
f - Относительная влажность воздуха - влажноcть воздуха, измеренная на высоте 2 м над землей.
Te - Эффективная температура - температура, которую ощущает одетый по сезону человек в тени. Характеристика душности погоды. При расчете учитывается влияние влажности воздуха и скорости ветра на теплоощущения человека.
Tes - Эффективная температура на солнце - температура, которую ощущает человек, с поправкой на солнечный нагрев. Характеристика знойности погоды. Зависит от высоты солнца над горизонтом, облачности и скорости ветра. Ночью, в пасмурную погоду, а также при ветре 12 м/с и более поправка равна нулю.
P - Атмосферное давление - приведенное к уровню моря атмосферное давление.
Po - Атмосферное давление - измеренное на уровне метеостанции атмосферное давление.
Tmin - Минимальная температура - минимум температуры воздуха на высоте 2 м над землей.
Tmax - Максимальная температура - максимум температуры воздуха на высоте 2 м над землей.
R - Количество осадков - Количество выпавших осадков за период времени, мм. При наведении курсора мыши на число - период времени, за который выпало указанное количество осадков.
R24 - Количество осадков - Количество выпавших осадков за 24 часа, мм.
S - Снежный покров - Высота снежного покрова, см. При наведении курсора мыши на число - состояние снежного покрова и степень покрытия местности в баллах.